DC1NF-7 Weather Reports


Display with metric or nautical units.
time (UTC)temp
F
wind
direction
speed
MPH
gust
MPH
rain 1hr
in
rain 24hr
in
rain mn
in
humidity
%
barometer
mb
20260508185527 55 90 3.0 6.0 0.00 0.00 0.00 71 1017.8
20260508184521 56 68 3.0 6.0 0.00 0.00 0.00 68 1017.8
20260508183518 56 67 3.0 6.0 0.00 0.00 0.00 65 1017.6
20260508182613 57 68 4.0 7.0 0.00 0.00 0.00 63 1017.5
20260508181608 57 73 2.0 4.0 0.00 0.00 0.00 62 1017.4
20260508180604 58 70 2.0 4.0 0.00 0.00 0.00 61 1017.3
20260508175603 59 73 2.0 7.0 0.00 0.00 0.00 59 1017.2
20260508174556 59 84 3.0 6.0 0.00 0.00 0.00 58 1017.1
20260508173552 60 80 2.0 6.0 0.00 0.00 0.00 58 1017.2
20260508172552 60 99 1.0 4.0 0.00 0.00 0.00 58 1017.2
20260508171546 60 76 1.0 4.0 0.00 0.00 0.00 56 1017.2
20260508170546 60 81 2.0 4.0 0.00 0.00 0.00 55 1017.1
20260508165546 60 82 2.0 6.0 0.00 0.00 0.00 55 1017.2
20260508164536 61 67 3.0 8.0 0.00 0.00 0.00 56 1017.1
20260508163530 61 81 4.0 7.0 0.00 0.00 0.00 55 1017.2
20260508162527 61 95 3.0 7.0 0.00 0.00 0.00 54 1017.1
20260508161524 61 85 2.0 4.0 0.00 0.00 0.00 51 1017.1
20260508160523 61 82 3.0 7.0 0.00 0.00 0.00 52 1017.1
20260508155517 62 92 2.0 6.0 0.00 0.00 0.00 52 1017.0
20260508154614 61 71 3.0 7.0 0.00 0.00 0.00 53 1017.1
20260508153611 63 84 3.0 7.0 0.00 0.00 0.00 50 1017.1
20260508152609 63 76 2.0 4.0 0.00 0.00 0.00 49 1017.1
20260508151602 63 98 2.0 6.0 0.00 0.00 0.00 49 1017.1
20260508150602 64 76 3.0 6.0 0.00 0.00 0.00 48 1017.2
20260508145555 65 68 3.0 7.0 0.00 0.00 0.00 48 1017.2
20260508144555 65 225 3.0 7.0 0.00 0.00 0.00 45 1017.2
20260508143556 65 229 1.0 4.0 0.00 0.00 0.00 46 1017.2
20260508142548 64 226 3.0 7.0 0.00 0.00 0.00 48 1017.4
20260508141543 64 122 1.0 2.0 0.00 0.00 0.00 47 1017.5
20260508140538 63 211 2.0 6.0 0.00 0.00 0.00 50 1017.5
20260508135531 64 205 2.0 4.0 0.00 0.00 0.00 48 1017.7
20260508134527 63 209 1.0 4.0 0.00 0.00 0.00 50 1017.6
20260508133526 63 93 2.0 6.0 0.00 0.00 0.00 50 1017.8
20260508132524 63 108 2.0 8.0 0.00 0.00 0.00 50 1017.8
20260508131519 63 100 2.0 6.0 0.00 0.00 0.00 50 1017.9
20260508130614 62 124 1.0 4.0 0.00 0.00 0.00 52 1017.9
20260508125609 64 86 2.0 6.0 0.00 0.00 0.00 50 1018.0
20260508124609 63 92 2.0 4.0 0.00 0.00 0.00 53 1018.1
20260508123602 62 120 2.0 4.0 0.00 0.00 0.00 52 1018.1
20260508122602 60 91 2.0 4.0 0.00 0.00 0.00 55 1018.1
20260508121604 61 86 4.0 11.0 0.00 0.00 0.00 55 1018.0
20260508120552 61 100 2.0 4.0 0.00 0.00 0.00 54 1018.0
20260508115552 60 82 3.0 6.0 0.00 0.00 0.00 56 1018.0
20260508114546 60 96 2.0 6.0 0.00 0.00 0.00 56 1018.1
20260508113542 62 92 3.0 8.0 0.00 0.00 0.00 54 1018.1
20260508112537 62 97 3.0 6.0 0.00 0.00 0.00 54 1018.2
20260508111533 62 239 2.0 4.0 0.00 0.00 0.00 55 1018.3
20260508110530 58 87 2.0 4.0 0.00 0.00 0.00 60 1018.3
20260508105527 60 87 3.0 7.0 0.00 0.00 0.00 60 1018.2
20260508104524 60 187 1.0 4.0 0.00 0.00 0.00 57 1018.2
20260508103523 59 100 1.0 4.0 0.00 0.00 0.00 60 1018.3
20260508102520 62 88 2.0 6.0 0.00 0.00 0.00 57 1018.5
20260508101611 59 119 1.0 4.0 0.00 0.00 0.00 59 1018.4
20260508100611 57 107 1.0 4.0 0.00 0.00 0.00 65 1018.5
20260508095606 58 224 3.0 4.0 0.00 0.00 0.00 64 1018.5
20260508094602 57 121 3.0 8.0 0.00 0.00 0.00 65 1018.5
20260508093603 58 113 2.0 6.0 0.00 0.00 0.00 62 1018.6
20260508092552 58 63 2.0 4.0 0.00 0.00 0.00 62 1018.6
20260508091549 57 85 0.0 4.0 0.00 0.00 0.00 64 1018.5
20260508090545 56 99 3.0 7.0 0.00 0.00 0.00 67 1018.5
20260508085544 54 71 3.0 6.0 0.00 0.00 0.00 69 1018.6
20260508084540 54 78 3.0 6.0 0.00 0.00 0.00 71 1018.6
20260508083533 55 89 1.0 2.0 0.00 0.01 0.00 69 1018.6
20260508082530 57 68 1.0 4.0 0.00 0.01 0.00 68 1018.6
20260508081527 58 134 1.0 4.0 0.00 0.01 0.00 66 1018.7
20260508080527 57 94 1.0 4.0 0.00 0.01 0.00 66 1018.8
20260508075522 56 44 0.0 4.0 0.00 0.01 0.00 69 1018.8
20260508074518 56 77 1.0 4.0 0.00 0.01 0.00 69 1018.8
20260508073614 54 74 2.0 6.0 0.00 0.01 0.00 73 1018.7
20260508072613 55 68 1.0 4.0 0.00 0.01 0.00 72 1018.7
20260508071605 54 73 1.0 6.0 0.00 0.01 0.00 76 1018.6
20260508070602 52 86 2.0 4.0 0.00 0.01 0.00 81 1018.5
20260508065558 51 82 3.0 6.0 0.00 0.01 0.00 83 1018.5
20260508064556 51 101 2.0 4.0 0.00 0.01 0.00 85 1018.3
20260508063553 50 90 2.0 4.0 0.00 0.01 0.00 87 1018.3
20260508062550 50 88 3.0 6.0 0.00 0.01 0.00 88 1018.1
20260508061543 49 74 3.0 6.0 0.00 0.02 0.00 89 1018.0
20260508060541 50 114 1.0 4.0 0.00 0.02 0.00 88 1018.0
20260508055537 50 74 2.0 4.0 0.00 0.02 0.00 88 1017.9
20260508054533 49 92 1.0 4.0 0.00 0.02 0.00 90 1017.9
20260508053526 47 222 1.0 2.0 0.00 0.02 0.00 92 1017.8
20260508052526 47 0.0 0.0 0.00 0.02 0.00 92 1017.7
20260508051521 46 0.0 0.0 0.00 0.02 0.00 93 1017.6
20260508050516 45 248 0.0 2.0 0.00 0.02 0.00 95 1017.6
20260508045616 45 225 0.0 2.0 0.00 0.04 0.00 96 1017.4
20260508044611 45 225 0.0 2.0 0.00 0.04 0.00 96 1017.3
20260508043605 45 234 1.0 2.0 0.00 0.04 0.00 96 1017.4
20260508042605 45 0.0 2.0 0.00 0.04 0.00 97 1017.4
20260508041559 45 0.0 0.0 0.00 0.04 0.00 97 1017.3
20260508040559 45 0.0 0.0 0.00 0.04 0.00 96 1017.2
20260508035557 45 0.0 0.0 0.00 0.04 0.00 96 1017.2
20260508034549 45 0.0 0.0 0.00 0.04 0.00 96 1017.2
20260508033545 46 0.0 0.0 0.00 0.04 0.00 96 1017.0
20260508032544 46 0.0 0.0 0.00 0.04 0.00 95 1017.1
20260508031537 47 0.0 0.0 0.00 0.04 0.00 95 1017.0
20260508030533 47 0.0 0.0 0.00 0.04 0.00 95 1017.0
20260508025530 47 0.0 0.0 0.00 0.04 0.00 95 1016.9
20260508024530 47 0.0 0.0 0.00 0.04 0.00 94 1017.0
20260508023526 48 90 0.0 2.0 0.00 0.04 0.00 94 1017.0
20260508022521 48 74 1.0 2.0 0.00 0.04 0.00 94 1017.0
20260508021617 48 0.0 0.0 0.00 0.04 0.00 94 1017.0
20260508020614 48 0.0 0.0 0.00 0.04 0.00 94 1017.1
20260508015609 48 0.0 0.0 0.00 0.04 0.00 94 1017.1
20260508014610 48 0.0 0.0 0.00 0.04 0.00 94 1017.1
20260508013602 48 0.0 0.0 0.00 0.04 0.00 94 1017.1
20260508012555 48 0.0 0.0 0.00 0.04 0.00 94 1017.1
20260508011552 48 0.0 0.0 0.00 0.04 0.00 93 1017.0
20260508010551 48 0.0 0.0 0.00 0.04 0.00 93 1017.2
20260508005543 49 0.0 0.0 0.00 0.04 0.00 93 1017.3
20260508004539 49 0.0 2.0 0.00 0.04 0.00 93 1017.2
20260508003536 49 0.0 0.0 0.00 0.04 0.00 93 1017.4
20260508002536 49 0.0 0.0 0.00 0.04 0.00 93 1017.4
20260508001532 49 79 1.0 2.0 0.00 0.05 0.00 92 1017.3
20260508000526 49 0.0 2.0 0.00 0.06 0.00 92 1017.4
20260507235529 49 0.0 0.0 0.00 0.06 0.00 92 1017.5
20260507234523 49 103 0.0 2.0 0.00 0.07 0.00 92 1017.5
20260507233524 49 88 1.0 2.0 0.00 0.09 0.00 92 1017.5
20260507232615 49 120 1.0 2.0 0.00 0.11 0.00 92 1017.5
20260507231608 50 68 0.0 2.0 0.00 0.12 0.00 92 1017.5
20260507230605 50 108 0.0 2.0 0.00 0.12 0.00 92 1017.4
20260507225602 50 248 0.0 2.0 0.00 0.12 0.00 92 1017.5
20260507224558 50 0.0 2.0 0.00 0.13 0.00 91 1017.4
20260507223554 50 0.0 0.0 0.00 0.13 0.00 91 1017.4
20260507222550 50 0.0 2.0 0.00 0.13 0.00 91 1017.3
20260507221549 50 225 0.0 2.0 0.00 0.13 0.00 90 1017.3
20260507220542 50 90 0.0 2.0 0.00 0.13 0.00 90 1017.3
20260507215540 50 0.0 0.0 0.00 0.13 0.13 90 1017.2
20260507214536 50 0.0 2.0 0.00 0.13 0.13 89 1017.2
20260507213530 50 248 0.0 2.0 0.00 0.13 0.13 89 1017.2
20260507212527 51 158 0.0 2.0 0.00 0.13 0.13 90 1017.1
20260507211527 51 90 1.0 2.0 0.00 0.13 0.13 89 1017.1
20260507210519 51 0.0 2.0 0.00 0.13 0.13 89 1017.2
20260507205515 51 225 0.0 2.0 0.00 0.13 0.13 90 1017.1
20260507204614 51 0.0 0.0 0.00 0.13 0.13 90 1017.0
20260507203611 51 0.0 2.0 0.00 0.13 0.13 89 1017.0
20260507202605 51 0.0 2.0 0.00 0.13 0.13 89 1017.0
20260507201601 51 113 0.0 2.0 0.00 0.13 0.13 89 1016.9
20260507200558 51 0.0 0.0 0.00 0.13 0.13 88 1016.7
20260507195555 51 0.0 0.0 0.00 0.13 0.13 88 1016.6
20260507194552 51 0.0 0.0 0.00 0.14 0.13 87 1016.6
20260507193548 51 232 0.0 2.0 0.00 0.15 0.13 87 1016.5
20260507192552 51 239 1.0 4.0 0.00 0.17 0.13 86 1016.3
20260507191542 51 249 2.0 4.0 0.00 0.18 0.13 86 1016.2
20260507190536 52 242 1.0 4.0 0.00 0.19 0.13 85 1016.1